This demonstration page uses our WeatherBlox Daily Observations layout. Learn more.

Left ArrowRight Arrow

38.89511, -77.03637

Hourly Observations for July 3, 2015

Temp ( °F °C ) Dew Point ( °F °C ) Humidity (%) Winds ( mph kmh ) Pressure ( in mb ) Visibility ( mi km ) Precip ( " mm )
12:52 am 00:52 Partly Cloudy 70 21.1 66 18.9 87 87 Calm 29.93 1013 8 13 0.00 0.00
1:52 am 01:52 Clear with Mist and Fog 70 21.1 66 18.9 87 87 Calm 29.92 1013 6 10 0.00 0.00
2:52 am 02:52 Clear 69 20.6 64 17.8 84 84 Calm 29.92 1013 7 11 0.00 0.00
3:52 am 03:52 Hazy 69 20.6 64 17.8 84 84 Calm 29.92 1013 6 10 0.00 0.00
4:52 am 04:52 Partly Cloudy with Mist and Fog 68 20 63 17.2 84 84 Calm 29.93 1014 6 10 0.00 0.00
5:47 am 05:47 Mostly Cloudy with Mist and Fog 66 19 63 17 88 88 SSW 5 7 29.94 1014 3 5 0.00 0.00
5:49 am 05:49 Mostly Cloudy with Mist and Fog 66 19 64 18 94 94 SSW 3 6 29.94 1014 2 3 0.00 0.00
5:52 am 05:52 Mostly Cloudy with Mist and Fog 67 19.4 64 17.8 91 91 SSW 5 7 29.94 1014 2 2 0.00 0.00
6:13 am 06:13 Mostly Cloudy with Fog 66 19 64 18 94 94 Calm 29.94 1014 1 1 0.00 0.00
6:25 am 06:25 Mostly Cloudy with Mist and Fog 68 20 64 18 88 88 Calm 29.94 1014 2 2 0.00 0.00
6:34 am 06:34 Mostly Cloudy with Mist and Fog 68 20 64 18 88 88 Calm 29.97 1015 2 2 0.00 0.00
6:42 am 06:42 Mostly Cloudy with Mist and Fog 68 20 64 18 88 88 Calm 29.97 1015 2 2 0.00 0.00
6:52 am 06:52 Mostly Cloudy with Mist and Fog 68 20 65 18.3 90 90 Calm 29.96 1015 2 2 0.00 0.00
7:07 am 07:07 Mostly Cloudy with Mist and Fog 68 20 64 18 88 88 Calm 29.97 1015 2 3 0.00 0.00
7:52 am 07:52 Mostly Cloudy with Mist and Fog 69 20.6 65 18.3 87 87 Calm 29.97 1015 2 3 0.00 0.00
8:48 am 08:48 Mostly Cloudy with Mist and Fog 72 22 66 19 83 83 Calm 29.97 1015 3 5 0.00 0.00
8:52 am 08:52 Mostly Cloudy with Mist and Fog 71 21.7 67 19.4 87 87 Calm 29.98 1015 4 6 0.00 0.00
9:52 am 09:52 Mostly Cloudy with Haze 75 23.9 66 18.9 74 74 Calm 30.00 1016 6 10 0.00 0.00
10:52 am 10:52 Mostly Cloudy 78 25.6 67 19.4 69 69 S 8 13 30.00 1016 9 14 0.00 0.00
11:52 am 11:52 Mostly Cloudy 78 25.6 65 18.3 64 64 SSW 8 13 30.00 1016 10 16 0.00 0.00
12:52 pm 12:52 Mostly Cloudy 81 27.2 64 17.8 57 57 S 7 11 30.00 1016 10 16 0.00 0.00
1:52 pm 13:52 Mostly Cloudy 81 27.2 65 18.3 58 58 S 7 11 29.98 1015 10 16 0.00 0.00
2:52 pm 14:52 Cloudy 83 28.3 66 18.9 57 57 S 5 7 29.97 1015 10 16 0.00 0.00
3:52 pm 15:52 Cloudy 82 27.8 62 16.7 51 51 S 9 15 29.95 1014 10 16 0.00 0.00
4:52 pm 16:52 Cloudy 81 27.2 65 18.3 58 58 SSE 8 13 29.95 1014 10 16 0.00 0.00
5:10 pm 17:10 Cloudy 81 27 64 18 58 58 SSE 6 9 29.94 1014 10 16 0.00 0.00
5:52 pm 17:52 Cloudy 80 26.7 66 18.9 62 62 SE 6 9 29.94 1014 10 16 0.00 0.00
5:55 pm 17:55 Cloudy 81 27 66 19 62 62 SE 7 11 29.94 1014 10 16 0.00 0.00
6:12 pm 18:12 Cloudy with Light Rain 81 27 66 19 62 62 ESE 7 11 29.94 1014 10 16 0.00 0.00
6:52 pm 18:52 Cloudy with Light Rain 79 26.1 64 17.8 60 60 SSE 7 11 29.94 1014 10 16 0.00 0.03
7:52 pm 19:52 Cloudy with Light Rain 77 25 66 18.9 69 69 ESE 7 11 29.94 1014 10 16 0.01 0.25
8:52 pm 20:52 Cloudy 76 24.4 66 18.9 72 72 ESE 5 7 29.93 1014 10 16 0.00 0.03
9:52 pm 21:52 Cloudy with Light Rain 74 23.3 66 18.9 76 76 SSE 3 6 29.93 1014 10 16 0.01 0.25
10:52 pm 22:52 Cloudy with Light Rain 74 23.3 66 18.9 76 76 SSE 5 7 29.94 1014 10 16 0.00 0.03
11:52 pm 23:52 Cloudy with Light Rain 74 23.3 67 19.4 79 79 Calm 29.94 1014 10 16 0.01 0.25

Powered by AerisWeather